Voltar ao catálogo

STARLINK-4436

AtivoComunicaçõesSSO
NORAD 53479·PAYLOAD·🇺🇸 United States

Lançado Aug 12, 2022 de Vandenberg Space Force Base

Loading…

Próximas Passagens (próximas 24 horas)

TLE

AtualizadoSource: CelesTrak SupGP

Época: Sep 15, 2026, 01:18 UTC

1 53479C 22099Q   26258.05465278 -.00041506  00000+0 -12898-2 0  2585
2 53479  97.2863  15.7387 0001051  97.9383 108.4470 15.33426383    15

Acompanhe STARLINK-4436 em tempo real com AllMySat

Download on the App Store